Waarnemingen

Advertentie
Mijn weer
Falsterbo A, Zweden (2615): temperatuur & dauwpunt: 15.10.2017 12:00:00 - 21.10.2017 12:00:00 (CEST)Falsterbo A, Zweden (2615): windsnelheid & windstoten: 15.10.2017 12:00:00 - 21.10.2017 12:00:00 (CEST)Falsterbo A, Zweden (2615): windrichting: 15.10.2017 12:00:00 - 21.10.2017 12:00:00 (CEST)Falsterbo A, Zweden (2615): luchtdruk: 15.10.2017 12:00:00 - 21.10.2017 12:00:00 (CEST)Falsterbo A, Zweden (2615): zicht: 15.10.2017 12:00:00 - 21.10.2017 12:00:00 (CEST)Falsterbo A, Zweden (2615): neerslag: 15.10.2017 12:00:00 - 21.10.2017 12:00:00 (CEST)
Datum & Tijd tt [°C] td [°C] ff [km/u] ff [kn] fx [km/u] fx [kn] dd ppp [hPa] vv [km] rr [mm]
21.10.2017 12:00:00 12,0 11,7 10 5 18 10 O 1013,3 1,4 0,0
21.10.2017 11:00:00 11,9 11,6 13 7 19 10 O 1013,2 2,0 0,0
21.10.2017 10:00:00 11,8 11,5 8 5 21 11 O 1012,9 2,6 0,2
21.10.2017 09:00:00 11,6 11,3 15 8 27 15 ONO 1012,6 4,6 0,1
21.10.2017 08:00:00 11,7 11,4 19 11 29 16 O 1012,2 6 0,1
21.10.2017 07:00:00 11,8 11,5 23 12 36 19 O 1011,9 2,9 0,1
21.10.2017 06:00:00 11,9 11,6 26 14 33 18 O 1011,8 3,1 0,0
21.10.2017 05:00:00 11,9 11,6 19 10 32 17 OZO 1012,0 2,7 0,2
21.10.2017 04:00:00 12,1 11,8 24 13 34 19 O 1012,0 2,4 0,1
21.10.2017 03:00:00 12,0 11,7 26 14 33 18 O 1012,0 1,8 0,1
21.10.2017 02:00:00 12,0 11,7 26 14 37 20 O 1012,2 1,9 0,0
21.10.2017 01:00:00 12,1 11,8 25 14 34 18 O 1012,3 1,7 0,0
21.10.2017 00:00:00 12,0 11,7 27 15 43 23 O 1012,3 1,8 0,1
20.10.2017 23:00:00 12,0 11,7 32 17 42 23 O 1012,1 1,9 0,4
20.10.2017 22:00:00 11,7 11,4 34 19 53 29 O 1011,8 2,6 0,4
20.10.2017 21:00:00 11,7 11,4 31 17 50 27 O 1011,6 2,3 0,6
20.10.2017 20:00:00 11,8 11,5 36 19 46 25 O 1012,1 2,0 1,3
20.10.2017 19:00:00 12,0 11,5 25 13 35 19 OZO 1012,9 1,8 0,3
20.10.2017 18:00:00 12,1 11,5 28 15 36 19 OZO 1012,9 2,5 0,3
20.10.2017 17:00:00 12,2 11,3 26 14 40 22 OZO 1012,8 4,7 0,0
20.10.2017 16:00:00 12,2 11,4 27 15 38 20 OZO 1013,1 4,2 0,0
20.10.2017 15:00:00 12,1 11,5 30 16 41 22 OZO 1012,9 3,4 0,0
20.10.2017 14:00:00 12,0 11,5 31 17 42 23 OZO 1012,6 2,7 0,0
20.10.2017 13:00:00 11,8 11,3 32 17 43 23 OZO 1013,0 2,4 0,0
20.10.2017 12:00:00 11,7 11,2 35 19 51 27 OZO 1013,5 2,1 0,0
20.10.2017 11:00:00 12,1 11,6 34 18 54 29 OZO 1013,1 3,3 0,0
20.10.2017 10:00:00 12,0 11,5 37 20 54 29 OZO 1013,2 2,4 0,0
20.10.2017 09:00:00 11,9 11,3 39 21 52 28 OZO 1013,2 3,1 0,0
20.10.2017 08:00:00 11,9 11,3 35 19 51 28 OZO 1013,2 7 0,0
20.10.2017 07:00:00 12,0 11,2 39 21 51 27 O 1013,4 9 0,0
20.10.2017 06:00:00 11,9 11,1 37 20 53 29 OZO 1013,5 12 0,0
20.10.2017 05:00:00 11,8 11,0 40 21 53 29 OZO 1013,7 14 0,0
20.10.2017 04:00:00 11,8 11,0 39 21 50 27 O 1014,2 20 0,0
20.10.2017 03:00:00 11,8 11,2 36 19 51 27 O 1014,5 21 0,0
20.10.2017 02:00:00 11,8 11,2 38 21 50 27 O 1014,7 24 0,0
20.10.2017 01:00:00 11,9 11,3 37 20 49 26 O 1015,2 29 0,0
20.10.2017 00:00:00 11,9 11,1 37 20 54 29 O 1015,6 33 0,0
19.10.2017 23:00:00 11,6 10,8 42 23 55 30 O 1015,9 46 0,0
19.10.2017 22:00:00 11,5 10,7 42 23 55 30 O 1016,1 43 0,0
19.10.2017 21:00:00 11,6 10,8 42 23 55 30 O 1016,2 38 0,0
19.10.2017 20:00:00 11,8 11,2 38 21 53 28 O 1016,1 37 0,0
19.10.2017 19:00:00 12,0 11,2 39 21 50 27 O 1016,1 31 0,0
19.10.2017 18:00:00 11,9 11,1 37 20 48 26 O 1016,0 36 0,0
19.10.2017 17:00:00 12,1 11,3 33 18 44 24 O 1016,4 37 0,0
19.10.2017 16:00:00 12,4 11,8 33 18 44 24 O 1016,4 35 0,0
19.10.2017 15:00:00 12,8 12,2 30 16 40 22 O 1016,9 34 0,0
19.10.2017 14:00:00 12,4 11,9 29 16 39 21 O 1017,1 21 0,0
19.10.2017 13:00:00 12,3 12,0 27 15 39 21 O 1017,4 15 0,0
19.10.2017 12:00:00 12,3 12,0 29 16 36 19 O 1017,4 9 0,0
19.10.2017 11:00:00 12,2 11,9 24 13 29 16 O 1017,3 5 0,0
19.10.2017 10:00:00 11,7 11,4 19 10 27 15 O 1017,2 9 0,0
19.10.2017 09:00:00 11,4 11,1 21 11 34 18 O 1016,9 12 0,1
19.10.2017 08:00:00 11,6 11,3 21 12 31 17 O 1016,6 7 0,6
19.10.2017 07:00:00 11,6 11,3 21 11 29 16 O 1016,3 3,6 1,0
19.10.2017 06:00:00 11,8 11,5 22 12 27 15 O 1016,5 3,0 0,4
19.10.2017 05:00:00 11,8 11,5 18 10 24 13 O 1016,2 7 0,0
19.10.2017 04:00:00 11,8 11,5 18 10 23 12 O 1016,2 10 0,0
19.10.2017 03:00:00 11,7 11,2 13 7 17 9 O 1016,2 8 0,0
19.10.2017 02:00:00 11,7 11,2 10 5 19 11 O 1016,3 7 0,0
19.10.2017 01:00:00 11,8 11,3 14 8 18 10 O 1016,2 6 1,6
19.10.2017 00:00:00 11,9 11,3 10 5 11 6 O 1016,3 3,8 1,4
18.10.2017 23:00:00 12,0 11,4 3 2 8 4 NNO 1016,5 9 0,6
18.10.2017 22:00:00 12,0 11,2 3 2 6 4 O 1016,1 9 0,6
18.10.2017 21:00:00 12,2 11,4 4 2 6 3 N 1015,9 24 0,0
18.10.2017 20:00:00 12,3 11,4 2 1 6 4 ZZO 1015,4 32 0,0
18.10.2017 19:00:00 12,3 11,2 3 2 5 3 W 1015,3 38 0,0
18.10.2017 18:00:00 12,7 11,6 4 2 9 5 W 1015,0 30 0,0
18.10.2017 17:00:00 12,9 11,6 9 5 11 6 ZW 1015,0 28 0,0
18.10.2017 16:00:00 13,1 11,5 9 5 13 7 WZW 1014,9 30 0,0
18.10.2017 15:00:00 13,4 11,6 8 5 12 7 ZW 1014,8 30 0,0
18.10.2017 14:00:00 13,5 11,4 10 5 16 9 WZW 1014,9 29 0,0
18.10.2017 13:00:00 13,6 11,3 15 8 26 14 WZW 1014,9 30 0,0
18.10.2017 12:00:00 13,6 11,1 20 11 25 14 W 1014,8 31 0,0
18.10.2017 11:00:00 13,1 11,2 20 11 30 16 W 1014,5 22 0,0
18.10.2017 10:00:00 12,8 11,2 25 14 31 17 WZW 1014,3 17 0,0
18.10.2017 09:00:00 12,6 10,8 23 12 31 17 WZW 1013,9 19 0,0
18.10.2017 08:00:00 12,3 10,7 23 13 36 20 WZW 1013,7 17 0,0
18.10.2017 07:00:00 12,5 10,7 27 15 36 19 WZW 1013,4 18 0,0
18.10.2017 06:00:00 12,4 11,1 29 16 42 23 WZW 1013,4 13 0,0
18.10.2017 05:00:00 12,2 11,1 33 18 45 24 WZW 1013,3 13 0,0
18.10.2017 04:00:00 12,4 11,1 34 19 44 24 WZW 1013,2 13 0,0
18.10.2017 03:00:00 12,5 11,1 34 18 43 23 WZW 1013,8 14 0,0
18.10.2017 02:00:00 12,5 10,9 34 18 45 24 WZW 1014,0 14 0,0
18.10.2017 01:00:00 12,7 11,1 33 18 42 23 ZW 1014,3 15 0,0
18.10.2017 00:00:00 12,8 11,0 29 15 37 20 ZW 1014,5 16 0,0
17.10.2017 23:00:00 12,8 10,7 30 16 38 20 ZW 1014,8 17 0,0
17.10.2017 22:00:00 12,9 11,0 29 16 39 21 ZW 1014,5 16 0,0
17.10.2017 21:00:00 12,9 11,0 31 17 40 21 ZW 1014,7 15 0,0
17.10.2017 20:00:00 13,1 11,0 29 16 40 22 ZW 1014,9 16 0,0
17.10.2017 19:00:00 13,2 11,1 28 15 41 22 WZW 1015,1 14 0,0
17.10.2017 18:00:00 13,2 11,3 29 16 41 22 WZW 1014,9 14 0,0
17.10.2017 17:00:00 13,5 11,2 31 17 40 22 ZW 1015,0 14 0,0
17.10.2017 16:00:00 13,7 11,4 30 16 39 21 ZW 1015,2 15 0,0
17.10.2017 15:00:00 13,9 11,6 27 15 36 19 ZW 1015,6 14 0,0
17.10.2017 14:00:00 14,1 11,6 30 16 44 24 ZW 1016,0 13 0,0
17.10.2017 13:00:00 14,4 12,1 29 16 39 21 WZW 1016,5 15 0,0
17.10.2017 12:00:00 14,5 12,2 24 13 35 19 WZW 1016,7 20 0,0
17.10.2017 11:00:00 14,0 12,7 22 12 29 16 ZW 1016,7 13 0,0
17.10.2017 10:00:00 13,9 12,8 21 12 31 17 ZZW 1016,5 12 0,0
17.10.2017 09:00:00 13,5 12,9 21 11 27 14 ZZW 1016,5 8 0,0
17.10.2017 08:00:00 13,4 12,6 23 12 31 17 ZZW 1016,2 8 0,0
17.10.2017 07:00:00 13,6 13,0 26 14 34 19 ZZW 1016,1 11 0,0
17.10.2017 06:00:00 13,5 13,0 25 13 30 16 ZZW 1016,3 7 0,0
17.10.2017 05:00:00 13,0 12,7 22 12 27 15 Z 1016,7 2,2 0,0
17.10.2017 04:00:00 12,9 12,4 22 12 30 16 ZZO 1017,2 2,6 0,0
17.10.2017 03:00:00 13,0 12,5 22 12 28 15 ZZO 1018,0 3,6 0,0
17.10.2017 02:00:00 12,9 12,4 22 12 31 17 Z 1018,8 3,5 0,0
17.10.2017 01:00:00 13,0 12,5 18 10 25 13 Z 1019,2 3,4 0,0
17.10.2017 00:00:00 13,4 12,9 17 9 22 12 Z 1019,4 3,3 0,0
16.10.2017 23:00:00 13,1 12,8 15 8 18 10 Z 1020,1 1,8 0,0
16.10.2017 22:00:00 12,2 11,7 11 6 15 8 Z 1020,2 1,2 0,0
16.10.2017 21:00:00 13,1 12,6 11 6 19 11 ZW 1020,3 2,2 0,0
16.10.2017 20:00:00 13,1 12,5 16 9 19 11 ZW 1020,0 2,9 0,0
16.10.2017 19:00:00 13,3 12,5 16 9 20 11 ZW 1020,0 4,7 0,0
16.10.2017 18:00:00 13,5 12,6 16 9 19 11 ZW 1019,7 5 0,0
16.10.2017 17:00:00 13,8 12,2 13 7 24 13 ZW 1019,6 10 0,0
16.10.2017 16:00:00 14,6 12,5 16 9 23 13 WZW 1019,4 18 0,0
16.10.2017 15:00:00 14,2 12,9 14 8 24 13 W 1019,5 7 0,0
16.10.2017 14:00:00 14,4 13,3 15 8 23 12 W 1019,5 7 0,0
16.10.2017 13:00:00 13,9 13,1 14 7 21 11 WZW 1019,4 5 0,0
16.10.2017 12:00:00 13,8 12,9 15 8 19 10 ZW 1019,1 5 0,0
16.10.2017 11:00:00 13,7 12,8 13 7 24 13 ZW 1018,7 6 0,0
16.10.2017 10:00:00 13,6 12,8 19 10 26 14 ZW 1018,4 7 0,0
16.10.2017 09:00:00 13,5 12,9 23 12 28 15 ZW 1018,0 8 0,0
16.10.2017 08:00:00 13,1 12,5 18 10 24 13 ZW 1017,7 8 0,0
16.10.2017 07:00:00 13,0 12,4 18 10 23 12 ZW 1017,6 10 0,0
16.10.2017 06:00:00 13,0 12,2 17 9 22 12 ZW 1017,6 12 0,0
16.10.2017 05:00:00 13,1 12,3 18 10 26 14 ZZW 1017,7 14 0,0
16.10.2017 04:00:00 13,3 12,7 20 11 28 15 ZZW 1017,8 15 0,0
16.10.2017 03:00:00 13,5 13,0 23 13 28 15 ZW 1018,0 13 0,0
16.10.2017 02:00:00 13,3 12,8 22 12 27 14 ZW 1018,3 7 0,0
16.10.2017 01:00:00 13,1 12,8 20 11 30 16 ZZW 1018,5 3,6 0,0
16.10.2017 00:00:00 13,5 13,2 21 11 28 15 Z 1018,7 3,2 0,0
15.10.2017 23:00:00 13,1 12,8 16 9 25 13 Z 1019,2 3,1 0,0
15.10.2017 22:00:00 13,3 13,0 20 11 26 14 Z 1019,6 5 0,0
15.10.2017 21:00:00 13,0 12,7 18 10 24 13 ZZO 1020,3 3,6 0,0
15.10.2017 20:00:00 12,8 12,5 19 10 24 13 ZZO 1020,9 3,3 0,0
15.10.2017 19:00:00 13,2 12,7 14 8 29 16 Z 1021,4 3,6 0,0
15.10.2017 18:00:00 13,2 12,7 21 11 36 19 ZZW 1021,6 3,7 0,0
15.10.2017 17:00:00 13,0 12,5 28 15 37 20 ZZW 1021,8 4,9 0,0
15.10.2017 16:00:00 13,3 12,7 26 14 34 18 ZZW 1022,3 2,9 0,0
15.10.2017 15:00:00 14,4 13,6 19 11 30 16 ZZW 1022,9 12 0,0
15.10.2017 14:00:00 15,0 14,2 16 9 22 12 ZZW 1023,1 8 0,0
15.10.2017 13:00:00 14,6 14,0 14 7 21 11 ZZW 1023,3 7 0,0
15.10.2017 12:00:00 14,0 13,5 18 10 23 13 ZW 1023,5 6 0,0

tt = temperatuur
td = dauwpunt
ff = windsnelheid
fx = windstoten
dd = windrichting
ppp = luchtdruk
vv = zicht
rr = neerslag

Weerstations in de omgeving